Flag for Japan Weather past 2 weeks in Sagamihara, Japan

Now
80 °F

Clear.


Feels Like: 83 °F
Forecast: 76 / 93 °F
Wind: 2 mph from East

Location: Yokota Ab

Current Time: Aug 3, 2015 at 12:09:38 AM

Latest Report: Aug 2, 2015 at 10:58 PM


Visibility: 10 mi

Pressure: 29.92 "Hg

Humidity: 65%

Dew point: 67 °F

Location of SagamiharaLocation

Historic Weather in Sagamihara — Graph

°F

Sagamihara temperature yesterday

Maximum temperature yesterday: 95 °F (at 1:58 PM)
Minimum temperature yesterday: 77 °F (at 4:58 AM)
Average temperature yesterday: 85 °F

Past Weeks' High & Low Weather Summary

 TemperatureHumidityPressure
High96 °F (Aug 1, 1:58 PM)98% (Jul 23, 4:58 AM)30.01 "Hg (Jul 23, 4:58 AM)
Low71 °F (Jul 19, 2:58 AM)44% (Jul 22, 12:03 PM)29.70 "Hg (Jul 28, 2:58 PM)
Average84 °F72%29.86 "Hg
* Reported Jul 18 10:58 PM — Aug 2 10:58 PM, Sagamihara, Weather by CustomWeather, © 2015

Note: Actual official high and low records may vary slightly from our data, if they occured in-between our weather recording intervals... More about our weather records

Advertising

Sagamihara weather history for previous 24 hours

 ConditionsComfort  
Time TempWeatherWind HumidityBarometerVisibility
10:58 PM
Sun, Aug 2
80 °FClear.2 mph65%29.92 "Hg10 mi
9:58 PM83 °FClear.5 mph58%29.94 "Hg10 mi
8:58 PM81 °FClear.3 mph62%29.95 "Hg10 mi
7:58 PM81 °FPassing clouds.5 mph63%29.96 "Hg10 mi
6:58 PM86 °FOvercast.22 mph72%29.96 "Hg10 mi
5:58 PM87 °FPassing clouds.8 mph69%29.88 "Hg10 mi
4:58 PM89 °FPassing clouds.15 mph66%29.88 "Hg10 mi
3:58 PM91 °FSunny.13 mph62%29.89 "Hg10 mi
2:58 PM93 °FSunny.15 mph58%29.88 "Hg10 mi
1:58 PM95 °FSunny.9 mph55%29.89 "Hg10 mi
12:58 PM94 °FHaze.5 mph51%29.90 "Hg3 mi
11:58 AM92 °FSunny.3 mph52%29.92 "Hg10 mi
10:58 AM91 °FSunny.6 mph54%29.94 "Hg10 mi
9:58 AM89 °FSunny.5 mph58%29.95 "Hg10 mi
8:58 AM87 °FSunny.1 mph67%29.96 "Hg10 mi
7:58 AM84 °FSunny.1 mph69%29.95 "Hg9 mi
6:58 AM83 °FSunny.2 mph62%29.95 "Hg10 mi
5:58 AM78 °FSunny.3 mph71%29.93 "Hg10 mi
4:58 AM77 °FSunny.7 mph73%29.93 "Hg10 mi
3:58 AM77 °FClear.5 mph72%29.91 "Hg10 mi
2:58 AM78 °FClear.5 mph71%29.90 "Hg10 mi
1:58 AM78 °FClear.2 mph72%29.90 "Hg10 mi
12:58 AM77 °FClear.1 mph73%29.90 "Hg10 mi
Weather by CustomWeather, © 2015

See weather overviewHow to use our weather pages